DW3370 Weather Reports


time (UTC)temp
C
wind
direction
speed
KPH
gust
KPH
rain 1hr
cm
rain 24hr
cm
rain mn
cm
humidity
%
barometer
mb
20260507130104 11 318 3.2 9.7 0.00 0.56 0.15 60 1012.6
20260507124557 11 24 3.2 14.5 0.00 0.71 0.15 59 1012.5
20260507123100 11 45 4.8 16.1 0.00 0.71 0.15 65 1012.3
20260507121558 10 67 4.8 8.0 0.00 0.71 0.15 67 1012.4
20260507120057 10 0 0.0 3.2 0.00 0.71 0.15 71 1012.4
20260507114559 10 0 0.0 0.0 0.00 0.71 0.15 73 1012.5
20260507113053 10 0 0.0 0.0 0.00 0.71 0.15 75 1012.5
20260507111552 9 0 0.0 1.6 0.00 0.71 0.15 75 1012.4
20260507104602 9 0 0.0 3.2 0.00 0.71 0.15 74 1011.9
20260507103127 9 0 0.0 3.2 0.00 0.71 0.15 74 1011.8
20260507101553 9 0 0.0 0.0 0.00 0.71 0.15 74 1011.4
20260507100106 10 0 0.0 0.0 0.00 0.71 0.15 74 1011.3
20260507094552 10 0 0.0 3.2 0.00 0.71 0.15 73 1011.5
20260507093055 10 0 0.0 3.2 0.00 0.71 0.15 73 1011.3
20260507091556 10 0 0.0 9.7 0.00 0.71 0.15 74 1011.2
20260507090059 10 0 3.2 8.0 0.03 0.71 0.15 78 1011.2
20260507084604 10 9 0.0 8.0 0.03 0.71 0.15 85 1011.2
20260507083054 10 0 0.0 3.2 0.03 0.71 0.15 86 1011.0
20260507081559 10 40 1.6 6.4 0.03 0.71 0.15 86 1010.8
20260507080055 10 49 1.6 8.0 0.00 0.69 0.13 86 1010.8
20260507074555 10 0 0.0 0.0 0.00 0.69 0.13 86 1010.8
20260507073052 10 0 0.0 3.2 0.03 0.69 0.13 86 1010.6
20260507071557 10 0 0.0 3.2 0.03 0.69 0.13 85 1010.9
20260507070105 10 0 0.0 3.2 0.03 0.69 0.13 85 1011.2
20260507064557 10 38 0.0 4.8 0.05 0.69 0.13 84 1011.2
20260507063051 11 0 0.0 3.2 0.03 0.66 0.10 84 1011.2
20260507061554 11 0 0.0 8.0 0.03 0.66 0.10 84 1011.3
20260507054613 11 13 0.0 3.2 0.03 0.64 0.08 86 1011.0
20260507053106 11 0 0.0 3.2 0.05 0.64 0.08 86 1010.9
20260507051600 11 0 0.0 3.2 0.05 0.64 0.08 86 1011.0
20260507050059 11 0 0.0 4.8 0.05 0.61 0.05 86 1011.0
20260507044557 11 315 1.6 9.7 0.05 0.61 0.05 86 1011.0
20260507043053 11 321 1.6 6.4 0.03 0.58 0.03 87 1011.1
20260507041602 11 0 0.0 11.3 0.03 0.58 0.03 86 1010.7
20260507040056 12 325 0.0 8.0 0.00 0.56 0.00 84 1010.6
20260507034600 13 298 1.6 9.7 0.00 0.56 0.56 81 1010.6
20260507033057 13 347 3.2 6.4 0.00 0.56 0.56 81 1010.7
20260507031553 13 340 0.0 6.4 0.00 0.56 0.56 81 1010.8
20260507030054 13 0 1.6 11.3 0.00 0.56 0.56 81 1010.4
20260507024554 13 299 0.0 8.0 0.00 0.56 0.56 81 1010.2
20260507023052 13 332 3.2 14.5 0.03 0.56 0.56 81 1010.3
20260507021608 14 325 3.2 14.5 0.03 0.56 0.56 83 1010.2
20260507020109 14 0 0.0 4.8 0.05 0.56 0.56 85 1010.1
20260507014618 15 0 0.0 3.2 0.05 0.56 0.56 86 1010.1
20260507013053 15 0 0.0 4.8 0.03 0.53 0.53 85 1009.9
20260507011601 15 0 0.0 6.4 0.03 0.53 0.53 86 1009.9
20260507010056 16 0 0.0 4.8 0.00 0.51 0.51 85 1010.1
20260507004553 16 0 0.0 9.7 0.00 0.51 0.51 84 1010.0
20260507003056 16 304 3.2 17.7 0.00 0.51 0.51 83 1009.7
20260507001605 17 288 3.2 11.3 0.00 0.51 0.51 84 1009.6
20260507000118 17 0 1.6 4.8 0.00 0.51 0.51 85 1009.0
20260506234618 17 0 0.0 3.2 0.00 0.51 0.51 85 1008.3
20260506233054 17 0 0.0 4.8 0.00 0.51 0.51 85 1008.5
20260506231555 18 0 0.0 4.8 0.00 0.51 0.51 84 1008.3
20260506224557 18 0 0.0 6.4 0.00 0.51 0.51 84 1008.3
20260506223104 18 248 0.0 9.7 0.00 0.51 0.51 83 1008.2
20260506221603 18 247 4.8 9.7 0.00 0.51 0.51 82 1008.2
20260506220053 18 271 3.2 6.4 0.00 0.51 0.51 84 1008.1
20260506214600 18 0 0.0 4.8 0.00 0.51 0.51 84 1008.2
20260506213058 18 241 0.0 4.8 0.00 0.51 0.51 83 1008.1
20260506211555 18 248 0.0 6.4 0.00 0.51 0.51 83 1007.7
20260506210100 18 0 1.6 12.9 0.00 0.51 0.51 82 1007.5
20260506204559 18 269 4.8 9.7 0.00 0.51 0.51 81 1007.5
20260506203056 18 250 3.2 11.3 0.00 0.51 0.51 81 1007.7
20260506201558 18 253 6.4 17.7 0.00 0.51 0.51 81 1007.5
20260506200057 18 269 4.8 19.3 0.00 0.51 0.51 81 1007.7
20260506194601 18 255 8.0 20.9 0.00 0.51 0.51 80 1007.6
20260506193059 18 259 9.7 17.7 0.00 0.51 0.51 81 1007.5
20260506191605 18 263 6.4 24.1 0.00 0.51 0.51 82 1007.7
20260506184559 18 244 9.7 16.1 0.00 0.51 0.51 81 1007.8
20260506183104 18 209 14.5 22.5 0.00 0.51 0.51 81 1007.8
20260506181605 18 263 9.7 19.3 0.00 0.51 0.51 82 1007.9
20260506180058 17 278 6.4 19.3 0.00 0.51 0.51 85 1008.1
20260506174553 16 200 8.0 19.3 0.00 0.51 0.51 85 1008.2
20260506173120 16 257 9.7 17.7 0.00 0.51 0.51 86 1008.3
20260506171559 16 248 4.8 20.9 0.00 0.51 0.51 87 1008.2
20260506170106 16 246 4.8 17.7 0.00 0.51 0.51 87 1008.2
20260506164553 15 235 9.7 20.9 0.03 0.51 0.51 87 1008.4
20260506163056 16 256 4.8 16.1 0.03 0.51 0.51 87 1008.3
20260506161553 15 284 6.4 17.7 0.05 0.51 0.51 87 1008.4
20260506160055 15 225 8.0 17.7 0.10 0.51 0.51 88 1008.6
20260506154610 15 256 11.3 19.3 0.10 0.48 0.48 88 1008.4
20260506153054 15 213 8.0 17.7 0.10 0.48 0.48 89 1008.1
20260506151555 15 236 8.0 19.3 0.10 0.46 0.46 89 1008.4
20260506150051 15 248 8.0 16.1 0.08 0.41 0.41 89 1008.8
20260506144559 15 236 8.0 16.1 0.08 0.38 0.38 88 1009.4
20260506143051 15 211 8.0 17.7 0.13 0.38 0.38 88 1009.0
20260506141555 15 248 6.4 16.1 0.15 0.36 0.36 88 1009.1
20260506140053 15 247 11.3 22.5 0.18 0.33 0.33 88 1008.7
20260506134550 15 201 6.4 17.7 0.20 0.28 0.28 88 1009.1
20260506133109 15 228 6.4 17.7 0.23 0.25 0.25 88 1009.1
20260506131555 15 209 6.4 19.3 0.20 0.20 0.20 87 1009.4